Regional Weather Roundup
Issued by NWS

Home | Current Version | Previous Version | Text Only | Print | Product List | Glossary Off
Versions: 1 2 3 4 5 6 7 8 9 10 11 12 13 14 15 16 17 18 19 20 21 22 23 24 25 26 27 28 29 30 31 32 33 34 35 36 37 38 39 40 41 42 43 44 45 46 47 48 49 50

000
ASUS43 KDMX 031807
RWRIA

WEATHER ROUNDUP FOR IOWA
NATIONAL WEATHER SERVICE DES MOINES IA
100 PM CDT MON AUG 03 2015

NOTE: "FAIR" INDICATES FEW OR NO CLOUDS BELOW 12,000 FEET WITH NO
SIGNIFICANT WEATHER AND/OR OBSTRUCTIONS TO VISIBILITY.

* - THESE STATIONS ARE NOT NWS STATIONS...THUS NOT UNDER NWS
QUALITY CONTROL.  THEY ALSO DO NOT REPORT WEATHER SUCH
AS PRECIPITATION OR FOG.

IAZ001>003-012>014-020>022-031>034-043>046-031900-
   NORTHWEST IOWA

CITY           SKY/WX    TMP DP  RH WIND       PRES   REMARKS
CARROLL *      SUNNY     77  55  47 CALM      29.98F
CHEROKEE *     SUNNY     77  58  51 W3        29.99S
DENISON *      SUNNY     77  59  53 VRB7      29.97F
LE MARS *      SUNNY     77  57  50 VRB5      30.00S
ORANGE CITY *  SUNNY     75  54  46 CALM      30.00S
SHELDON *      SUNNY     77  55  47 N8        29.99S
SIOUX CITY     SUNNY     78  59  51 VRB3      29.98F
6HR MIN TEMP:  61; 6HR MAX TEMP:  79;

SPENCER        SUNNY     80  49  33 NW10      29.99F
6HR MIN TEMP:  55; 6HR MAX TEMP:  80;

STORM LAKE *   SUNNY     75  55  50 CALM      30.00F
$$

IAZ055>058-069>071-079>083-090>094-031900-
   SOUTHWEST IOWA

CITY           SKY/WX    TMP DP  RH WIND       PRES   REMARKS
ATLANTIC *     SUNNY     77  61  57 NE8       29.97F
AUDUBON *      SUNNY     79  63  57 NE7       29.98F HX  80
CLARINDA *     MOSUNNY   79  66  65 VRB6      30.00R HX  81
COUNCIL BLFS * SUNNY     75  63  64 CALM      30.00R
CRESTON *      SUNNY     73  59  60 NE5       30.00R
HARLAN  *      SUNNY     77  64  65 NE5       30.00F
LAMONI         LGT RAIN  77  61  57 VRB3      29.98F
6HR MIN TEMP:  67; 6HR MAX TEMP:  78; 6HR PCP: TRACE;

RED OAK *      SUNNY     79  63  57 NE7       29.98R HX  80
SHENANDOAH *   SUNNY     79  66  65 SE6       29.99R HX  81
$$

IAZ047>049-059>061-072>074-084-031900-
   CENTRAL IOWA

CITY           SKY/WX    TMP DP  RH WIND       PRES   REMARKS
AMES           SUNNY     77  54  44 W5        29.97F
6HR MIN TEMP:  62; 6HR MAX TEMP:  78;

ANKENY *       SUNNY     79  59  50 VRB3G12   29.96F HX  80
CHARITON *     SUNNY     77  57  50 VRB6      29.97F
DES MOINES     MOSUNNY   81  55  40 VRB6      29.95F HX  81
6HR MIN TEMP:  68; 6HR MAX TEMP:  81;

GRINNELL*      SUNNY     75  57  53 NW7       29.97F
KNOXVILLE *    SUNNY     77  57  50 NW7       29.96S
MARSHALLTOWN   SUNNY     76  51  41 VRB6      29.96F
6HR MIN TEMP:  60; 6HR MAX TEMP:  77;

PELLA *        SUNNY     77  62  58 N6        29.97F
PERRY *          N/A     77  61  57 N7        29.97F
$$

IAZ004>006-015-016-023>025-035-036-031900-
   NORTH CENTRAL IOWA

CITY           SKY/WX    TMP DP  RH WIND       PRES   REMARKS
ALGONA *       SUNNY     77  54  44 NW7G13    29.98F
CLARION *      SUNNY     75  54  46 NW5G12    29.98F
ESTHERVILLE    SUNNY     77  53  43 NW7       29.98F
6HR MIN TEMP:  53; 6HR MAX TEMP:  77;

FORT DODGE *   SUNNY     77  54  44 W7        29.99F
MASON CITY     SUNNY     78  54  43 NW13G20   29.98F
6HR MIN TEMP:  58; 6HR MAX TEMP:  78;

FOREST CITY *  SUNNY     73  52  46 NW10      29.97F
IOWA FALLS *     N/A     76  53  43 W8        29.99F
$$

IAZ007>011-017>019-026>030-037>042-050>054-066-031900-
   NORTHEAST IOWA

CITY           SKY/WX    TMP DP  RH WIND       PRES   REMARKS
CEDAR RAPIDS   SUNNY     76  57  51 NW13      29.94F
6HR MIN TEMP:  59; 6HR MAX TEMP:  77;

CHARLES CITY * SUNNY     75  55  50 NW12      29.96S
CLINTON *      SUNNY     79  50  36 NW12      29.94F
DECORAH *      SUNNY     75  50  41 W8G20     29.93S
DUBUQUE        SUNNY     77  49  37 NW12      29.93F
6HR MIN TEMP:  63; 6HR MAX TEMP:  77;

MONTICELLO *   SUNNY     79  52  38 W13       29.93F
OELWEIN *      SUNNY     75  54  46 W12G18    29.96S
WATERLOO       SUNNY     78  55  44 NW12      29.94F
6HR MIN TEMP:  58; 6HR MAX TEMP:  78;

$$

IAZ064-065-067-068-078-031900-
   EAST CENTRAL IOWA

CITY           SKY/WX    TMP DP  RH WIND       PRES   REMARKS
DAVENPORT      SUNNY     78  53  41 NW7       29.94S
6HR MIN TEMP:  63; 6HR MAX TEMP:  79;

IOWA CITY      SUNNY     79  51  37 N10       29.95F
6HR MIN TEMP:  67; 6HR MAX TEMP:  79;

MT. PLEASANT * SUNNY     81  51  34 N3        29.94F HX  80
MUSCATINE *    SUNNY     81  54  39 N9        29.94F HX  80
QUAD CITIES    SUNNY     81  52  36 NW9       29.93S HX  80
6HR MIN TEMP:  69; 6HR MAX TEMP:  82;

$$

IAZ062-063-075>077-085>089-095>099-031900-
   SOUTHEAST IOWA

CITY           SKY/WX    TMP DP  RH WIND       PRES   REMARKS
BURLINGTON     SUNNY     80  60  50 NW6       29.93F HX  81
6HR MIN TEMP:  68; 6HR MAX TEMP:  80;

FAIRFIELD *    SUNNY     77  57  50 N9        29.95F
FORT MADISON * SUNNY     79  64  61 NW7       29.95S HX  81
KEOKUK *       CLOUDY    81  63  54 VRB3G12   29.93S HX  82
OSKALOOSA *      N/A     76  58  53 N5        29.96F
CENTERVILLE *  SUNNY     75  59  57 N5        29.98S
OTTUMWA        SUNNY     78  57  48 VRB5      29.94F
6HR MIN TEMP:  65; 6HR MAX TEMP:  78;

WASHINGTON *   SUNNY     79  57  47 N7        29.96F HX  80
$$

ABBREVIATIONS USED IN REMARKS
   TC - TEMPERATURES IN CELSIUS
  WCI - WIND CHILL INDEX
   HX - HEAT INDEX
  VSB - VISIBILITY
$$



USA.gov is the U.S. government's official web portal to all federal, state and local government web resources and services.